Location: Burzi?i
(45.0869°N, 16.0577°E)
Time: 11:55:14
(UTC+00:00)

Cosmos 44 Rocket - Pass Details

Date: 29 October 2020
Orbit: 642 x 748 km, 65.1° (Epoch: 28 November)

Event Time Altitude Azimuth Distance (km) Brightness Sun altitude
Rises 18:12:38 0° 224° (SW) 2,985 7.1 -26.1°
Reaches altitude 10° 18:14:55 10° 227° (SW) 2,090 6.2 -26.5°
Maximum altitude 18:19:37 61° 308° (NW) 775 3.6 -27.3°
Enters shadow 18:19:56 60° 329° (NNW) 787 3.6 -27.4°
